Weather History for Guymon, OK

Change the Weather History Date:

Sunday, February 10, 2013

  Actual Average Record
Temperature  
Mean Temperature 39 °F 38 °F  
Max Temperature 50 °F 53 °F 79 °F (1999)
Min Temperature 27 °F 23 °F -1 °F (2011)
Degree Days  
Heating Degree Days 26 27  
Month to date heating degree days 221 278  
Since 1 July heating degree days 2679 3006  
Cooling Degree Days 0 0  
Month to date cooling degree days 0 0  
Year to date cooling degree days 0 0  
Moisture  
Dew Point 18 °F    
Average Humidity 55    
Maximum Humidity 85    
Minimum Humidity 24    
Precipitation  
Precipitation 0.00 in 0.02 in 0.04 in (2001)
Month to date precipitation 0.00 0.16  
Year to date precipitation 0.31 0.56  
Snow  
Snow 0.00 in - - ()
Month to date snowfall 0.0  
Since 1 July snowfall 3.2  
Snow Depth 0.00 in    
Sea Level Pressure  
Sea Level Pressure 29.77 in    
Wind  
Wind Speed 14 mph (NW)    
Max Wind Speed 30 mph    
Max Gust Speed 38 mph    
Visibility 10 miles    
Events      
T = Trace of Precipitation, MM = Missing Value Source: NWS Daily Summary

Daily Weather History Graph

Daily Weather History Graph

Search for Another Location

Airport:

Trip Planner

Search our weather history database for the weather conditions in past years. The results will help you decide how hot, cold, wet, or windy it might be!

Date:

Astronomy

Feb. 10, 2013 Rise Set
Actual Time 7:39 AM CST 6:21 PM CST
Civil Twilight 7:12 AM CST 6:48 PM CST
Nautical Twilight 6:42 AM CST 7:18 PM CST
Astronomical Twilight 6:12 AM CST 7:49 PM CST
Moon 7:32 AM CST (2/10) 7:11 PM CST (2/10)
Length of Visible Light 11h 35m
Length of Day
10h 42m
New Moon, 0% of the Moon is Illuminated
Feb 10
New Moon
Feb 17
First Quarter
Feb 25
Full
Mar 4
Last Quarter
Mar 11
New

Hourly Weather History & Observations

Time (CST) Temp. Windchill Dew Point Humidity Pressure Visibility Wind Dir Wind Speed Gust Speed Precip Events Conditions
12:53 AM 41.0 °F 31.1 °F 10.9 °F 29% 29.48 in 10.0 mi SW 23.0 mph - N/A   Clear
1:53 AM 39.9 °F 29.2 °F 10.9 °F 31% 29.47 in 10.0 mi WSW 25.3 mph 31.1 mph N/A   Clear
2:53 AM 39.9 °F 29.5 °F 12.9 °F 33% 29.48 in 10.0 mi WSW 24.2 mph 32.2 mph N/A   Clear
3:53 AM 36.0 °F 27.5 °F 19.9 °F 52% 29.54 in 10.0 mi WNW 12.7 mph 25.3 mph N/A   Clear
4:53 AM 35.1 °F 26.9 °F 27.0 °F 72% 29.57 in 10.0 mi West 11.5 mph - N/A   Clear
5:53 AM 30.9 °F 22.8 °F 26.1 °F 82% 29.60 in 10.0 mi WSW 9.2 mph - N/A   Clear
6:53 AM 30.9 °F 21.7 °F 26.1 °F 82% 29.64 in 10.0 mi WSW 11.5 mph - N/A   Clear
7:53 AM 30.9 °F 22.8 °F 25.0 °F 79% 29.69 in 10.0 mi WSW 9.2 mph - N/A   Clear
8:53 AM 36.0 °F 27.5 °F 25.0 °F 64% 29.71 in 10.0 mi West 12.7 mph - N/A   Clear
9:53 AM 41.0 °F 31.6 °F 21.9 °F 47% 29.75 in 10.0 mi NW 20.7 mph 25.3 mph N/A   Clear
10:53 AM 44.1 °F 34.2 °F 19.9 °F 38% 29.77 in 10.0 mi NW 28.8 mph 38.0 mph N/A   Clear
11:53 AM 46.0 °F 38.5 °F 18.0 °F 33% 29.79 in 10.0 mi NW 19.6 mph 28.8 mph N/A   Clear
12:53 PM 46.9 °F - 18.0 °F 32% 29.78 in 10.0 mi NNW 23.0 mph 27.6 mph N/A   Clear
1:53 PM 48.9 °F - 17.1 °F 28% 29.78 in 10.0 mi NW 18.4 mph 26.5 mph N/A   Clear
2:53 PM 48.9 °F - 17.1 °F 28% 29.79 in 10.0 mi NW 16.1 mph 32.2 mph N/A   Clear
3:53 PM 48.0 °F - 14.0 °F 26% 29.82 in 10.0 mi NNW 15.0 mph 24.2 mph N/A   Scattered Clouds
4:53 PM 48.0 °F - 15.1 °F 27% 29.85 in 10.0 mi North 16.1 mph - N/A   Clear
5:53 PM 45.0 °F 39.3 °F 14.0 °F 29% 29.90 in 10.0 mi North 11.5 mph - N/A   Clear
6:53 PM 39.0 °F 33.4 °F 14.0 °F 36% 29.94 in 10.0 mi North 8.1 mph - N/A   Clear
7:53 PM 35.1 °F 31.0 °F 14.0 °F 42% 29.99 in 10.0 mi North 4.6 mph - N/A   Clear
8:53 PM 33.1 °F 28.7 °F 12.9 °F 43% 30.01 in 10.0 mi North 4.6 mph - N/A   Clear
9:53 PM 30.9 °F 26.2 °F 12.9 °F 47% 30.03 in 10.0 mi NNE 4.6 mph - N/A   Clear
10:53 PM 30.0 °F 24.1 °F 14.0 °F 51% 30.05 in 10.0 mi NNE 5.8 mph - N/A   Clear
11:53 PM 28.0 °F 20.0 °F 14.0 °F 56% 30.07 in 10.0 mi NNE 8.1 mph - N/A   Clear